SCP
0 0 0 0 0 0 0 0 0 0 0 0 0 0 0 0 0 0 0 0 0 0 0 0 0 0 0 0 0 0 0 0 0 0 0 0 0 0 0 0 0 0 0
0 0 0 0 0 0 0 0 0 0 0 0 0 0 0 0 0 0 0 0 0 0 0 0 0 0 0 0 0 0 0 0 0 0 0 0 0 0 0 0 0 0 0
0 0 0 0 0 0 0 0 0 0 0 0 0 0 0 0 0 0 0 0 0 0 0 0 0 0 0 0 0 0 0 0 0 0 0 0 0 0 0 0 0 0 0
0 0 0 0 0 0 0 0 0 0 0 0 0 0 0 0 0 0 0 0 0 0 0 0 0 0 0 0 0 0 0 0 0 0 0 0 0 0 0 0 0 0 0
0 0 0 0 0 0 0 0 0 0 0 0 0 0 0 0 0 0 0 0 0 0 0 0 0 0 0 0 0 0 0 0 0 0 0 0 0 0 0 0 0 0 0
0 0 0 0 0 0 0 0 0 0 0 0 0 0 0 0 0 0 0 0 0 0 0 0 0 0 0 0 0 0 0 0 0 0 0 0 0 0 0 0 0 0 0
0 0 0 0 0 0 0 0 0 0 0 0 0 0 0 0 0 0 0 0 0 0 0 0 0 0 0 0 0 0 0 0 0 0 0 0 0 0 0 0 0 0 0
0 0 0 0 0 0 0 0 0 0 0 0 0 0 0 0 0 0 0 0 0 0 0 0 0 0 0 0 0 0 0 0 0 0 0 0 0 0 0 0 0 0 0
0 0 0 0 0 0 0 0 0 0 0 0 0 0 0 0 0 0 0 0 0 0 0 0 0 0 0 0 0 0 0 0 0 0 0 0 0 0 0 0 0 0 0
0 0 0 0 0 0 0 0 0 0 0 0 0 0 0 0 0 0 0 0 0 0 0 0 0 0 0 0 0 0 0 0 0 0 0 0 0 0 0 0 0 0 0
0 0 0 0 0 0 0 0 0 0 0 0 0 0 0 0 0 0 0 0 0 0 0 0 0 0 0 0 0 0 0 0 0 0 0 0 0 0 0 0 0 0 0
0 0 0 0 0 0 0 0 0 0 0 0 0 0 0 0 0 0 0 0 0 0 0 0 0 0 0 0 0 0 0 0 0 0 0 0 0 0 0 0 0 0 0
0 0 0 0 0 0 0 0 0 0 0 0 0 0 0 0 0 0 0 0 0 0 0 0 0 0 0 0 0 0 0 0 0 0 0 0 0 0 0 0 0 0 0
0 0 0 0 0 0 0 0 0 0 0 0 0 0 0 0 0 0 0 0 0 0 0 0 0 0 0 0 0 0 0 0 0 0 0 0 0 0 0 0 0 0 0
0 0 0 0 0 0 0 0 0 0 0 0 0 0 0 0 0 0 0 0 0 0 0 0 0 0 0 0 0 0 0 0 0 0 0 0 0 0 0 0 0 0 0
0 0 0 0 0 0 0 0 0 0 0 0 0 0 0 0 0 0 0 0 0 0 0 0 0 0 0 0 0 0 0 0 0 0 0 0 0 0 0 0 0 0 0
0 0 0 0 0 0 0 0 0 0 0 0 0 0 0 0 0 0 0 0 0 0 0 0 0 0 0 0 0 0 0 0 0 0 0 0 0 0 0 0 0 0 0
0 0 0 0 0 0 0 0 0 0 0 0 0 0 0 0 0 0 0 0 0 0 0 0 0 0 0 0 0 0 0 0 0 0 0 0 0 0 0 0 0 0 0
0 0 0 0 0 0 0 0 0 0 0 0 0 0 0 0 0 0 0 0 0 0 0 0 0 0 0 0 0 0 0 0 0 0 0 0 0 0 0 0 0 0 0
0 0 0 0 0 0 0 0 0 0 0 0 0 0 0 0 0 0 0 0 0 0 0 0 0 0 0 0 0 0 0 0 0 0 0 0 0 0 0 0 0 0 0
0 0 0 0 0 0 0 0 0 0 0 0 0 0 0 0 0 0 0 0 0 0 0 0 0 0 0 0 0 0 0 0 0 0 0 0 0 0 0 0 0 0 0
0 0 0 0 0 0 0 0 0 0 0 0 0 0 0 0 0 0 0 0 0 0 0 0 0 0 0 0 0 0 0 0 0 0 0 0 0 0 0 0 0 0 0
0 0 0 0 0 0 0 0 0 0 0 0 0 0 0 0 0 0 0 0 0 0 0 0 0 0 0 0 0 0 0 0 0 0 0 0 0 0 0 0 0 0 0
0 0 0 0 0 0 0 0 0 0 0 0 0 0 0 0 0 0 0 0 0 0 0 0 0 0 0 0 0 0 0 0 0 0 0 0 0 0 0 0 0 0 0
0 0 0 0 0 0 0 0 0 0 0 0 0 0 0 0 0 0 0 0 0 0 0 0 0 0 0 0 0 0 0 0 0 0 0 0 0 0 0 0 0 0 0
0 0 0 0 0 0 0 0 0 0 0 0 0 0 0 0 0 0 0 0 0 0 0 0 0 0 0 0 0 0 0 0 0 0 0 0 0 0 0 0 0 0 0
Wind_Speed
3 3 2 2 2 2 2 2 2 3 3 3 2 3 3 4 4 4 3 8 10 11 11 10 10 9 9 8 7 7 6 5 5 4 4 3 3 2 2 2 3 3 3
4 4 3 3 3 3 3 3 4 3 3 3 4 4 4 4 4 5 5 6 10 12 13 13 13 12 11 11 10 9 9 8 7 6 6 5 4 3 3 2 2 2 2
5 4 4 4 4 4 4 3 4 3 3 3 5 5 4 5 5 6 6 5 5 10 13 16 16 15 14 13 13 12 11 10 9 9 8 7 6 5 4 4 3 2 1
6 5 4 5 5 4 4 4 4 3 4 4 4 4 4 4 6 6 5 5 5 5 9 16 16 16 16 16 15 14 13 13 12 11 10 9 8 7 6 5 4 4 3
6 6 5 5 5 4 4 5 4 4 4 5 5 5 5 5 6 6 6 7 7 7 6 10 14 14 15 17 17 16 15 15 14 13 12 11 10 9 8 7 6 5 5
6 6 5 5 5 4 4 5 6 5 4 4 4 5 5 5 5 5 7 6 6 7 7 7 7 9 14 17 19 18 17 16 16 15 14 13 12 11 10 9 8 7 7
4 5 4 4 4 5 6 6 5 5 5 3 2 4 4 5 6 5 5 4 5 6 6 6 6 5 6 13 17 19 19 18 17 16 16 14 13 12 11 11 10 9 8
2 3 4 4 4 4 5 5 5 3 3 3 3 2 3 3 4 5 4 4 5 3 4 5 5 6 5 4 8 15 17 19 18 17 16 16 14 13 12 12 11 10 8
1 2 3 3 3 4 4 5 5 6 5 3 4 4 3 4 3 2 2 3 3 3 3 3 4 5 5 5 5 10 14 17 19 18 17 15 15 14 13 12 11 10 8
2 1 1 2 2 2 3 4 4 4 5 4 3 4 5 3 3 3 2 2 2 2 3 3 3 4 4 4 6 9 11 14 18 18 16 16 15 15 14 14 12 10 7
3 3 2 2 1 2 2 3 3 3 4 4 3 3 4 3 4 4 4 2 1 1 1 2 2 2 3 3 3 6 10 13 16 17 17 17 15 15 14 12 10 8 6
3 5 4 3 2 2 2 2 2 2 2 3 3 2 2 2 3 4 5 3 3 2 1 1 2 2 2 2 4 6 8 11 14 15 16 15 13 12 11 9 7 5 3
2 4 4 4 3 3 3 2 1 1 1 1 1 1 1 2 1 2 3 3 2 1 1 1 2 3 3 3 3 5 6 8 10 12 12 11 9 7 5 5 4 3 3
2 3 4 4 4 4 4 3 2 2 2 2 2 2 1 2 1 1 1 2 2 2 1 2 2 3 3 3 4 5 4 6 6 7 6 5 4 2 1 1 1 1 2
2 4 4 4 4 4 4 4 3 3 3 4 3 3 3 3 3 2 2 1 2 2 1 2 2 3 3 3 4 3 3 4 4 3 3 3 3 3 2 1 1 2 3
4 4 5 5 5 5 5 4 4 4 5 5 4 5 5 4 3 4 3 2 1 1 0 2 2 3 4 3 5 4 4 7 7 6 6 5 4 3 2 1 2 3 4
4 5 5 5 6 6 5 5 6 6 7 6 6 6 6 5 4 4 4 4 3 2 1 1 2 3 4 4 4 4 4 4 5 8 7 6 5 3 2 3 3 5 6
5 5 5 6 6 6 6 7 7 7 7 7 7 7 6 5 6 5 4 4 4 3 2 1 2 3 4 3 4 4 4 4 4 7 7 6 5 5 4 4 5 6 7
5 5 6 6 6 6 7 7 7 8 8 7 7 7 6 5 6 4 5 4 3 4 3 2 2 2 2 3 3 3 4 4 4 5 6 6 6 6 6 7 7 8 9
5 5 6 6 6 6 7 7 7 7 7 7 7 6 5 5 4 4 4 4 4 4 4 3 2 2 2 3 3 3 3 3 3 3 5 5 7 8 8 8 9 9 10
6 5 5 5 5 5 5 6 6 7 7 7 7 6 6 7 8 6 4 3 4 3 3 3 2 2 2 3 2 2 2 3 2 2 3 3 3 3 4 6 8 9 10
5 5 6 5 5 5 10 11 8 6 6 6 5 5 5 7 9 10 10 9 6 4 2 2 2 2 2 1 1 2 2 3 3 2 3 4 2 3 3 3 8 10 10
5 5 5 5 5 6 11 11 11 6 5 5 4 4 4 4 6 4 7 9 9 9 6 2 1 0 1 1 1 1 1 1 2 3 2 3 2 3 3 5 11 9 8
4 4 4 4 4 5 9 10 10 6 4 4 3 3 2 3 2 3 3 4 4 4 4 2 1 1 2 2 2 2 2 2 3 2 1 2 3 3 4 4 8 5 5
3 3 3 3 4 3 6 8 8 3 3 3 2 2 2 2 4 5 3 3 3 3 5 5 4 3 4 4 2 1 1 2 3 2 1 1 3 3 3 3 4 7 8
3 3 3 2 2 2 3 6 7 2 2 1 2 2 4 3 4 4 2 1 1 2 2 3 4 5 5 5 6 2 1 1 1 3 1 1 2 3 5 3 2 3 4
Wind_Direction
191 197 204 205 209 203 207 219 231 244 256 264 255 242 242 242 245 241 247 253 255 253 249 243 235 231 227 225 221 217 212 208 206 200 193 184 173 161 146 127 113 98 85
195 199 209 214 218 213 210 213 223 233 246 252 262 254 246 240 239 238 236 247 248 247 245 244 241 237 232 230 227 222 218 216 215 212 207 203 197 192 184 173 152 130 109
203 204 210 218 223 215 214 218 228 229 244 245 255 257 251 242 237 237 235 233 241 242 241 242 243 240 236 233 230 226 221 218 217 217 214 211 209 207 205 201 195 194 179
207 206 213 225 221 209 209 217 223 228 239 240 247 251 248 246 243 238 234 231 231 235 239 241 243 243 240 237 235 232 226 220 217 217 217 215 214 214 215 214 213 219 225
209 207 217 224 213 210 214 222 219 214 233 239 242 247 245 243 245 243 237 234 230 230 230 239 241 242 241 240 239 237 232 225 219 218 218 217 217 217 219 220 221 225 231
210 209 218 221 209 212 219 219 226 219 227 237 249 255 249 245 243 240 242 241 236 234 232 234 237 240 239 240 241 241 238 231 224 219 218 217 218 219 223 226 227 230 234
214 211 221 219 211 219 225 221 221 228 235 219 239 272 269 246 242 242 237 239 243 240 236 235 233 234 241 241 241 243 242 238 232 225 219 217 218 221 223 228 231 234 238
226 220 224 225 218 225 231 226 215 220 226 187 194 241 288 300 266 241 234 237 246 243 241 241 239 238 239 239 242 242 243 243 239 232 223 217 216 220 226 231 234 237 240
257 241 236 232 228 221 231 232 221 223 235 219 199 208 237 252 289 287 254 247 251 246 251 251 245 246 244 241 246 245 242 242 242 239 227 218 218 219 222 226 233 239 242
358 335 297 261 247 238 243 246 234 228 229 236 217 223 232 233 252 287 279 268 260 260 264 264 259 253 250 246 245 245 244 240 242 242 234 227 224 225 226 227 228 226 230
16 6 358 344 307 276 265 262 254 238 231 237 226 214 231 239 231 251 272 270 294 277 280 280 288 288 286 275 265 257 250 246 246 246 246 241 234 232 231 230 225 224 230
13 11 8 4 347 328 306 289 273 258 252 248 245 222 211 218 220 233 256 261 263 276 308 323 333 338 338 324 299 283 266 257 256 255 255 251 242 238 234 226 219 220 240
10 4 10 9 1 351 345 340 350 343 321 277 269 259 248 248 244 238 258 272 268 281 324 356 17 6 356 350 328 314 284 272 267 265 262 259 255 240 239 226 218 235 261
14 5 14 18 15 12 15 24 41 36 40 41 31 22 21 9 350 305 266 270 278 274 303 329 31 19 1 354 344 337 318 299 287 280 280 285 282 259 211 232 286 300 304
31 28 28 30 26 27 31 42 54 49 55 52 47 49 51 33 26 14 4 320 258 269 280 23 16 8 357 0 1 2 358 340 330 327 332 8 44 48 47 28 328 290 282
36 37 39 39 39 37 38 52 57 54 64 56 53 58 54 38 37 30 26 24 17 249 252 45 27 1 354 10 25 29 24 27 26 25 33 40 38 44 28 343 298 289 288
42 46 48 51 50 45 43 56 60 59 66 61 54 61 57 49 49 38 36 37 32 31 102 66 43 16 19 18 16 24 33 31 21 25 25 23 20 7 348 320 303 292 287
51 52 55 59 58 54 52 60 65 62 66 64 58 59 54 55 53 42 42 41 34 26 61 73 36 21 25 16 18 26 28 31 22 12 9 7 4 356 340 320 304 295 289
61 59 61 65 62 60 62 64 71 71 68 65 62 63 58 61 59 49 48 44 34 33 41 77 53 28 23 21 25 28 28 15 11 9 7 7 358 344 329 314 305 299 293
69 66 68 71 71 70 68 71 74 75 72 65 59 57 55 62 69 62 54 45 46 47 48 61 56 33 26 14 31 20 10 2 356 0 3 359 352 344 330 318 308 300 292
73 69 71 73 81 84 81 81 77 79 76 68 55 46 48 59 68 69 67 55 54 56 53 54 45 31 19 14 11 354 358 337 338 355 339 330 327 320 319 314 307 294 284
73 68 63 62 63 79 94 93 90 77 73 70 60 45 46 47 53 55 59 57 60 67 64 62 47 42 2 346 340 352 356 4 335 339 343 309 314 300 296 284 294 292 284
87 76 64 61 60 78 90 92 91 86 77 69 62 49 42 40 47 44 49 47 42 49 62 106 100 67 287 286 317 332 329 294 274 295 335 301 322 299 293 304 311 299 289
98 86 73 65 61 73 91 96 97 87 80 70 61 56 43 11 30 81 68 47 33 25 37 65 140 227 244 246 220 222 247 281 279 280 234 288 316 297 301 309 317 315 314
112 101 91 78 67 58 88 105 106 95 81 60 39 35 26 346 11 68 82 53 26 2 17 30 29 18 2 355 16 72 355 350 321 309 350 294 308 307 301 301 315 331 335
132 122 106 91 75 32 80 112 117 115 98 68 27 8 5 356 4 38 105 81 359 327 356 7 15 16 18 15 28 52 140 165 281 296 307 318 310 335 320 297 286 296 309